• In France
  • List of Countries
  • For 7 days
  • Water Temperature
  • Satellite Maps
  • Weather Map
  • Weather Widgets
  • user-avatar
    Login

    Hourly Weather Pikovo

    Today, 21 September, Friday

    Time Temperature Precipitation Wind Pressure Humidity
    00:00 +17°C° 0 mm 2 mps 752 mmHg 87%
    01:00 +16°C° 0 mm 2 mps 752 mmHg 89%
    02:00 +16°C° 0 mm 2 mps 752 mmHg 91%
    03:00 +16°C° 0 mm 2 mps 752 mmHg 90%
    04:00 +16°C° 0 mm 2 mps 752 mmHg 89%
    05:00 +16°C° 0 mm 2 mps 752 mmHg 88%
    06:00 +17°C° 0 mm 2 mps 752 mmHg 86%
    07:00 +18°C° 0 mm 2 mps 752 mmHg 83%
    08:00 +19°C° 0 mm 3 mps 752 mmHg 81%
    09:00 +20°C° 0 mm 3 mps 752 mmHg 75%
    10:00 +22°C° 0 mm 3 mps 752 mmHg 69%
    11:00 +25°C° 0 mm 3 mps 752 mmHg 64%
    12:00 +26°C° 0 mm 3 mps 752 mmHg 60%
    13:00 +27°C° 0 mm 4 mps 752 mmHg 57%
    14:00 +28°C° 0 mm 4 mps 751 mmHg 53%
    15:00 +27°C° 0 mm 4 mps 751 mmHg 58%
    16:00 +26°C° 0 mm 3 mps 750 mmHg 63%
    17:00 +25°C° 0 mm 3 mps 750 mmHg 68%
    18:00 +24°C° 0 mm 3 mps 750 mmHg 70%
    19:00 +21°C° 0 mm 4 mps 749 mmHg 73%
    20:00 +20°C° 0 mm 4 mps 749 mmHg 75%
    21:00 +20°C° 0 mm 4 mps 749 mmHg 75%
    22:00 +19°C° 0 mm 4 mps 748 mmHg 74%
    23:00 +19°C° 0 mm 4 mps 748 mmHg 74%

    Tomorrow, 22 September, Saturday

    Time Temperature Precipitation Wind Pressure Humidity
    00:00 +19°C° 0 mm 5 mps 747 mmHg 74%
    01:00 +19°C° 0 mm 5 mps 747 mmHg 73%
    02:00 +19°C° 0 mm 5 mps 746 mmHg 73%
    03:00 +17°C° 0 mm 5 mps 746 mmHg 72%
    04:00 +17°C° 0 mm 5 mps 745 mmHg 72%
    05:00 +17°C° 0 mm 5 mps 745 mmHg 71%
    06:00 +17°C° 0 mm 5 mps 745 mmHg 72%
    07:00 +17°C° 0 mm 5 mps 745 mmHg 73%
    08:00 +17°C° 0 mm 6 mps 745 mmHg 74%
    09:00 +15°C° 0.2 mm 5 mps 746 mmHg 76%
    10:00 +14°C° 0.2 mm 4 mps 746 mmHg 79%
    11:00 +13°C° 0.2 mm 4 mps 747 mmHg 81%
    12:00 +12°C° 0.3 mm 3 mps 747 mmHg 84%
    13:00 +12°C° 0.3 mm 3 mps 747 mmHg 86%
    14:00 +12°C° 0.3 mm 3 mps 748 mmHg 88%
    15:00 +12°C° 0.2 mm 3 mps 748 mmHg 88%
    16:00 +12°C° 0.2 mm 3 mps 748 mmHg 87%
    17:00 +12°C° 0.2 mm 4 mps 748 mmHg 86%
    18:00 +11°C° 0.1 mm 3 mps 748 mmHg 87%
    19:00 +11°C° 0.1 mm 3 mps 748 mmHg 87%
    20:00 +11°C° 0.1 mm 3 mps 748 mmHg 87%
    21:00 +10°C° 0 mm 3 mps 748 mmHg 88%
    22:00 +10°C° 0 mm 3 mps 748 mmHg 90%
    23:00 +9°C° 0 mm 3 mps 748 mmHg 91%

    Day after tomorrow, 23 September, Sunday

    Time Temperature Precipitation Wind Pressure Humidity
    00:00 +9°C° 0 mm 3 mps 747 mmHg 93%
    01:00 +8°C° 0 mm 3 mps 747 mmHg 94%
    02:00 +8°C° 0 mm 3 mps 747 mmHg 96%
    03:00 +8°C° 0 mm 3 mps 747 mmHg 96%
    04:00 +7°C° 0 mm 3 mps 747 mmHg 96%
    05:00 +7°C° 0 mm 3 mps 747 mmHg 96%
    06:00 +8°C° 0 mm 3 mps 747 mmHg 93%
    07:00 +7°C° 0 mm 4 mps 746 mmHg 90%
    08:00 +8°C° 0 mm 4 mps 746 mmHg 87%
    09:00 +10°C° 0 mm 4 mps 746 mmHg 81%
    10:00 +12°C° 0 mm 4 mps 746 mmHg 75%
    11:00 +13°C° 0 mm 5 mps 746 mmHg 69%
    12:00 +13°C° 0.2 mm 5 mps 746 mmHg 70%
    13:00 +12°C° 0.2 mm 5 mps 746 mmHg 71%
    14:00 +12°C° 0.2 mm 5 mps 745 mmHg 72%
    15:00 +12°C° 0.1 mm 5 mps 745 mmHg 73%
    16:00 +12°C° 0.1 mm 4 mps 745 mmHg 74%
    17:00 +12°C° 0.1 mm 3 mps 745 mmHg 75%
    18:00 +11°C° 0.2 mm 3 mps 746 mmHg 80%
    19:00 +10°C° 0.2 mm 4 mps 746 mmHg 84%
    20:00 +8°C° 0.2 mm 4 mps 746 mmHg 89%
    21:00 +7°C° 0 mm 4 mps 746 mmHg 89%
    22:00 +7°C° 0 mm 4 mps 746 mmHg 89%
    23:00 +7°C° 0 mm 4 mps 746 mmHg 88%

    24 September, Monday

    Time Temperature Precipitation Wind Pressure Humidity
    00:00 +7°C° 0 mm 3 mps 746 mmHg 90%
    01:00 +7°C° 0 mm 3 mps 746 mmHg 91%
    02:00 +5°C° 0 mm 3 mps 746 mmHg 93%
    03:00 +5°C° 0 mm 3 mps 746 mmHg 94%
    04:00 +5°C° 0 mm 2 mps 746 mmHg 96%
    05:00 +5°C° 0 mm 2 mps 745 mmHg 97%
    06:00 +6°C° 0 mm 2 mps 745 mmHg 95%
    07:00 +7°C° 0 mm 1 mps 745 mmHg 93%
    08:00 +8°C° 0 mm 1 mps 745 mmHg 90%
    09:00 +8°C° 0 mm 2 mps 745 mmHg 85%
    10:00 +10°C° 0 mm 2 mps 744 mmHg 81%
    11:00 +11°C° 0 mm 3 mps 744 mmHg 76%
    12:00 +11°C° 0.6 mm 3 mps 743 mmHg 78%
    13:00 +10°C° 0.6 mm 4 mps 742 mmHg 81%
    14:00 +10°C° 0.6 mm 4 mps 741 mmHg 84%
    15:00 +8°C° 1.9 mm 4 mps 741 mmHg 87%
    16:00 +8°C° 1.9 mm 5 mps 740 mmHg 89%
    17:00 +7°C° 1.9 mm 5 mps 739 mmHg 92%
    18:00 +7°C° 2.6 mm 6 mps 739 mmHg 92%
    19:00 +7°C° 2.6 mm 6 mps 738 mmHg 93%
    20:00 +6°C° 2.6 mm 7 mps 738 mmHg 93%
    21:00 +6°C° 1.8 mm 7 mps 738 mmHg 93%
    22:00 +5°C° 1.8 mm 7 mps 737 mmHg 93%
    23:00 +5°C° 1.8 mm 7 mps 737 mmHg 92%

    25 September, Tuesday

    Time Temperature Precipitation Wind Pressure Humidity
    00:00 +5°C° 1.8 mm 8 mps 737 mmHg 92%
    01:00 +5°C° 1.8 mm 9 mps 738 mmHg 91%
    02:00 +5°C° 1.8 mm 9 mps 738 mmHg 90%
    03:00 +5°C° 1.1 mm 9 mps 738 mmHg 88%
    04:00 +5°C° 1.1 mm 9 mps 739 mmHg 87%
    05:00 +5°C° 1.1 mm 9 mps 739 mmHg 85%
    06:00 +5°C° 0.5 mm 9 mps 740 mmHg 84%
    07:00 +5°C° 0.5 mm 9 mps 741 mmHg 84%
    08:00 +3°C° 0.5 mm 9 mps 742 mmHg 83%
    09:00 +5°C° 0.2 mm 9 mps 742 mmHg 79%
    10:00 +5°C° 0.2 mm 9 mps 743 mmHg 76%
    11:00 +6°C° 0.2 mm 9 mps 744 mmHg 73%
    12:00 +6°C° 0.1 mm 8 mps 744 mmHg 67%
    13:00 +7°C° 0.1 mm 8 mps 744 mmHg 60%
    14:00 +7°C° 0.1 mm 8 mps 745 mmHg 54%
    15:00 +8°C° 0 mm 7 mps 745 mmHg 55%
    16:00 +8°C° 0 mm 6 mps 745 mmHg 56%
    17:00 +7°C° 0 mm 5 mps 746 mmHg 57%
    18:00 +6°C° 0 mm 5 mps 746 mmHg 61%
    19:00 +5°C° 0 mm 4 mps 746 mmHg 65%
    20:00 +4°C° 0 mm 4 mps 747 mmHg 68%
    21:00 +4°C° 0 mm 4 mps 747 mmHg 69%
    22:00 +3°C° 0 mm 4 mps 747 mmHg 70%
    23:00 +3°C° 0 mm 4 mps 748 mmHg 71%

    26 September, Wednesday

    Time Temperature Precipitation Wind Pressure Humidity
    00:00 +3°C° 0 mm 4 mps 748 mmHg 72%
    01:00 +3°C° 0 mm 4 mps 749 mmHg 72%
    02:00 +3°C° 0 mm 4 mps 749 mmHg 72%
    03:00 +3°C° 0 mm 4 mps 749 mmHg 72%
    04:00 +1°C° 0 mm 4 mps 750 mmHg 72%
    05:00 +1°C° 0 mm 4 mps 750 mmHg 72%
    06:00 +2°C° 0 mm 5 mps 750 mmHg 69%
    07:00 +3°C° 0 mm 5 mps 751 mmHg 66%
    08:00 +3°C° 0 mm 6 mps 751 mmHg 62%
    09:00 +4°C° 0 mm 6 mps 752 mmHg 58%
    10:00 +5°C° 0 mm 6 mps 752 mmHg 54%
    11:00 +6°C° 0 mm 7 mps 753 mmHg 50%
    12:00 +8°C° 0 mm 6 mps 753 mmHg 49%
    13:00 +8°C° 0 mm 6 mps 754 mmHg 49%
    14:00 +8°C° 0 mm 6 mps 754 mmHg 48%
    15:00 +7°C° 0 mm 5 mps 754 mmHg 52%
    16:00 +7°C° 0 mm 4 mps 755 mmHg 56%
    17:00 +7°C° 0 mm 3 mps 755 mmHg 59%
    18:00 +6°C° 0 mm 2 mps 756 mmHg 64%
    19:00 +5°C° 0 mm 2 mps 756 mmHg 68%
    20:00 +3°C° 0 mm 2 mps 757 mmHg 72%
    21:00 +3°C° 0 mm 2 mps 757 mmHg 72%
    22:00 +2°C° 0 mm 2 mps 757 mmHg 73%
    23:00 +2°C° 0 mm 2 mps 757 mmHg 74%
    Show more